カタログに戻る

CZ-6A DEB

運用中SSO
NORAD 56592·DEBRIS·🇨🇳 China

打ち上げ Nov 11, 2022 から Taiyuan Satellite Launch Center

Loading…

次のパス (今後24時間)

TLE

最新Source: Space-Track

元期: Sep 13, 2026, 07:33 UTC

1 56592U 22151ADQ 26256.31508643  .00001518  00000-0  71355-3 0  9998
2 56592  98.8173 268.5874 0034704  50.2136 310.2087 14.21208407186601

AllMySatでCZ-6A DEBをリアルタイム追跡

Download on the App Store